Date String (YYYY-MM-DD hh:mm:ss) UTC,Instrument flags,Ambient pressure (hPa),Sample flow (lpm),Bypass flow (lpm),Sample temperature (°C),Ambient temperature (°C),ASC tube jacket temperature (°C),LED temperature (°C),Box temperature (°C),Sample RH (%),Span deviation,Mass concentration (μg/m³),Mass concentration (μg/m³),Mass concentration (μg/m³)
DateTimeUTC,F1_M11,P_M11,Q1_M11,Q2_M11,T1_M11,T2_M11,T3_M11,T4_M11,T5_M11,U1_M11,ZSPAN_M11,X0_M11,X2_M11,X1_M11
2022-11-10 18:00:00,,0820.6,4.99,0.00,23.1,21.9,00.0,31.8,24.9,06.6,0002.0,0007.92,0003.56,0002.62
2022-11-10 18:01:00,,0820.6,5.00,0.00,23.1,21.9,00.0,31.9,25.0,06.6,0003.4,0009.88,0004.84,0003.90
2022-11-10 18:02:00,,0820.6,5.02,0.00,23.1,21.9,00.0,31.9,25.0,06.6,0003.3,0010.98,0005.32,0004.13
2022-11-10 18:03:00,,0820.6,5.00,0.00,23.1,21.9,00.0,31.9,25.0,06.8,0003.4,0011.61,0005.56,0004.26
2022-11-10 18:04:00,,0820.6,4.99,0.00,23.1,21.9,00.0,31.9,25.0,06.9,0003.8,0013.84,0006.53,0004.89
2022-11-10 18:05:00,,0820.7,5.00,0.00,23.1,22.0,00.0,31.9,25.0,06.9,0003.9,0014.38,0006.61,0004.95
2022-11-10 18:06:00,,0820.8,5.01,0.00,23.1,22.0,00.0,31.9,25.0,06.7,0003.9,0014.78,0006.62,0004.95
2022-11-10 18:07:00,,0820.8,5.01,0.00,23.1,22.0,00.0,31.9,25.0,06.7,0003.9,0014.63,0006.62,0004.95
2022-11-10 18:08:00,,0820.8,5.00,0.00,23.1,22.0,00.0,31.9,25.0,06.7,0003.8,0013.69,0006.37,0004.83
2022-11-10 18:09:00,,0820.8,4.99,0.00,23.2,22.0,00.0,31.9,25.0,06.8,0003.8,0013.26,0006.33,0004.89
2022-11-10 18:10:00,,0820.9,4.99,0.00,23.2,22.0,00.0,31.9,25.0,06.7,0003.6,0013.11,0006.43,0005.15
2022-11-10 18:11:00,,0820.9,5.00,0.00,23.2,22.0,00.0,32.0,25.0,06.6,0003.6,0011.86,0005.63,0004.58
2022-11-10 18:12:00,,0820.9,5.01,0.00,23.2,22.0,00.0,32.0,25.0,06.7,0004.1,0010.54,0004.69,0003.70
2022-11-10 18:13:00,,0820.9,5.01,0.00,23.2,22.1,00.0,32.0,25.1,06.8,0004.1,0013.44,0006.30,0004.67
2022-11-10 18:14:00,,0820.9,5.00,0.00,23.2,22.1,00.0,32.0,25.1,06.7,0003.9,0013.47,0006.38,0004.77
2022-11-10 18:15:00,,0820.9,5.00,0.00,23.2,22.1,00.0,32.0,25.1,06.8,0003.5,0012.06,0005.94,0004.52
2022-11-10 18:16:00,,0820.9,4.99,0.00,23.2,22.1,00.0,32.0,25.1,06.6,0003.5,0012.70,0006.56,0004.97
2022-11-10 18:17:00,,0820.9,5.01,0.00,23.3,22.2,00.0,32.0,25.1,06.4,0003.5,0012.70,0006.64,0005.03
2022-11-10 18:18:00,,0820.9,4.99,0.00,23.3,22.2,00.0,32.0,25.1,06.4,0003.5,0013.42,0006.65,0005.04
2022-11-10 18:19:00,,0820.9,4.99,0.00,23.3,22.2,00.0,32.0,25.2,06.8,0003.4,0014.15,0006.94,0005.14
2022-11-10 18:20:00,,0820.9,5.01,0.00,23.3,22.2,00.0,32.0,25.2,06.6,0003.5,0014.29,0006.67,0004.90
2022-11-10 18:21:00,,0820.9,5.00,0.00,23.3,22.2,00.0,32.1,25.2,06.7,0003.9,0017.07,0007.95,0005.56
2022-11-10 18:22:00,,0820.9,4.99,0.00,23.3,22.2,00.0,32.1,25.2,06.7,0003.9,0019.12,0009.16,0006.52
2022-11-10 18:23:00,,0820.9,4.99,0.00,23.3,22.2,00.0,32.1,25.2,06.6,0003.8,0018.75,0008.92,0006.40
2022-11-10 18:24:00,,0820.9,5.00,0.00,23.3,22.2,00.0,32.1,25.2,06.7,0003.7,0014.97,0006.96,0005.30
2022-11-10 18:25:00,,0820.9,5.01,0.00,23.3,22.2,00.0,32.1,25.2,06.7,0003.9,0014.40,0006.66,0005.07
2022-11-10 18:26:00,,0820.8,4.99,0.00,23.3,22.2,00.0,32.1,25.2,06.5,0003.9,0014.13,0006.43,0004.88
2022-11-10 18:27:00,,0820.8,5.00,0.00,23.4,22.3,00.0,32.1,25.2,06.5,0003.9,0012.90,0005.69,0004.33
2022-11-10 18:28:00,,0820.7,5.02,0.00,23.4,22.3,00.0,32.1,25.3,06.5,0003.9,0012.68,0005.56,0004.24
2022-11-10 18:29:00,,0820.7,4.99,0.00,23.4,22.3,00.0,32.1,25.3,06.5,0004.0,0012.67,0005.55,0004.23
2022-11-10 18:30:00,,0820.7,5.00,0.00,23.4,22.3,00.0,32.2,25.3,06.6,0004.0,0012.04,0005.26,0004.11
2022-11-10 18:31:00,,0820.7,5.02,0.00,23.4,22.4,00.0,32.2,25.3,06.7,0004.1,0012.92,0005.89,0004.49
2022-11-10 18:32:00,,0820.7,5.00,0.00,23.4,22.4,00.0,32.2,25.3,06.7,0004.1,0012.39,0005.58,0004.23
2022-11-10 18:33:00,,0820.7,4.99,0.00,23.5,22.4,00.0,32.2,25.3,06.8,0004.2,0012.69,0005.86,0004.39
2022-11-10 18:34:00,,0820.7,5.00,0.00,23.5,22.4,00.0,32.2,25.4,06.6,0004.1,0013.33,0006.34,0004.83
2022-11-10 18:35:00,,0820.7,5.00,0.00,23.5,22.4,00.0,32.2,25.4,06.6,0004.1,0013.34,0006.34,0004.82
2022-11-10 18:36:00,,0820.7,5.00,0.00,23.5,22.5,00.0,32.2,25.4,06.5,0004.2,0012.96,0006.12,0004.68
2022-11-10 18:37:00,,0820.6,5.01,0.00,23.5,22.5,00.0,32.2,25.4,06.7,0004.2,0012.67,0005.96,0004.60
2022-11-10 18:38:00,,0820.7,5.01,0.00,23.5,22.5,00.0,32.3,25.5,06.5,0004.2,0013.16,0006.13,0004.68
2022-11-10 18:39:00,,0820.7,4.98,0.00,23.5,22.5,00.0,32.3,25.5,06.5,0004.0,0014.27,0006.54,0004.97
2022-11-10 18:40:00,,0820.7,5.01,0.00,23.6,22.5,00.0,32.3,25.5,06.4,0003.9,0013.84,0006.70,0005.10
2022-11-10 18:41:00,,0820.7,4.99,0.00,23.6,22.5,00.0,32.3,25.5,06.4,0003.9,0013.73,0006.69,0005.10
2022-11-10 18:42:00,,0820.6,4.99,0.00,23.6,22.5,00.0,32.3,25.5,06.4,0003.9,0013.03,0006.32,0004.90
2022-11-10 18:43:00,,0820.7,5.01,0.00,23.6,22.5,00.0,32.3,25.5,06.4,0003.7,0010.03,0004.76,0003.93
2022-11-10 18:44:00,,0820.6,5.00,0.00,23.6,22.5,00.0,32.3,25.5,06.6,0002.9,0007.36,0003.18,0002.58
2022-11-10 18:45:00,,0820.6,4.99,0.00,23.6,22.5,00.0,32.4,25.5,06.6,0000.0,0005.35,0001.85,0001.27
2022-11-10 18:46:00,,0820.7,5.01,0.00,23.6,22.5,00.0,32.4,25.5,06.8,0000.0,0006.09,0002.13,0001.43
2022-11-10 18:47:00,,0820.7,5.00,0.00,23.6,22.5,00.0,32.4,25.5,06.4,0000.0,0007.16,0002.75,0001.90
2022-11-10 18:48:00,,0820.6,4.98,0.00,23.6,22.6,00.0,32.4,25.5,06.4,0000.0,0007.38,0002.94,0002.03
2022-11-10 18:49:00,,0820.7,5.01,0.00,23.7,22.6,00.0,32.4,25.5,06.5,0000.0,0006.71,0002.72,0001.91
2022-11-10 18:50:00,,0820.7,5.01,0.00,23.7,22.6,00.0,32.4,25.5,06.5,0000.0,0004.69,0001.98,0001.41
2022-11-10 18:51:00,,0820.6,4.98,0.00,23.7,22.6,00.0,32.4,25.5,06.5,0000.0,0004.21,0001.71,0001.19
2022-11-10 18:52:00,,0820.6,5.01,0.00,23.7,22.6,00.0,32.4,25.6,06.4,0000.0,0004.27,0001.74,0001.21
2022-11-10 18:53:00,,0820.6,5.00,0.00,23.7,22.6,00.0,32.5,25.6,06.4,0000.0,0004.02,0001.76,0001.21
2022-11-10 18:54:00,,0820.6,4.99,0.00,23.7,22.7,00.0,32.5,25.6,06.4,0000.0,0003.98,0001.77,0001.21
2022-11-10 18:55:00,,0820.6,5.01,0.00,23.7,22.7,00.0,32.5,25.6,06.4,0000.0,0004.26,0001.88,0001.27
2022-11-10 18:56:00,,0820.6,5.00,0.00,23.7,22.7,00.0,32.5,25.6,06.4,0000.0,0004.36,0001.91,0001.28
2022-11-10 18:57:00,,0820.6,4.99,0.00,23.8,22.7,00.0,32.5,25.6,06.5,0000.0,0004.03,0001.81,0001.21
2022-11-10 18:58:00,,0820.6,5.01,0.00,23.8,22.7,00.0,32.5,25.6,06.5,0000.0,0002.84,0001.19,0000.80
2022-11-10 18:59:00,,0820.3,4.99,0.00,23.8,22.7,00.0,32.5,25.6,06.4,0000.0,0002.71,0001.14,0000.79
